Погода в Слобожанском

Украина / Харьковская область     49°22′02″N   35°52′02″E
темп.,
°C
ветер,
м/с
пор.,
м/с
влажн.,
%
обл.,
%
осадки,
мм/ч
давл.,
гПа
погр.,
м
19 апреля, пн
пн1900:00+9в2278100 0.0 101644
03:00+8сз2282100 0.0 101646
06:00+8ссв2283100 0.1 101534
09:00+10вюв2274100 0.4 1015249
12:00+13юз1257100 0.3 10141010
15:00+14з3348100 0.4 10141773
18:00+13зсз225183 0.0 1013784
21:00+10св227352 0.1 101432
20 апреля, вт
вт2000:00+10в2271100 0.0 101221
03:00+9ююз1170100 0.0 101110
06:00+9св3580100 0.1 1010151
09:00+10всв4779100 0.1 1008344
12:00+11св5676100 0.3 1006677
15:00+11с4587100 3.9 1004403
18:00+9ссз61192100 6.0 1002692
21:00+9зсз61094100 8.8 1004519
21 апреля, ср
ср2100:00+8з5994100 1.3 1005367
03:00+8зюз51092100 1.5 1007446
06:00+6зюз5109594 0.3 1009273
09:00+10з577631 0.3 1012803
12:00+11зюз5759100 0.1 10131704
15:00+12з365753 0.1 10141198
18:00+13юз4656100 0.1 10141113
21:00+8зюз22815 0.6 101626
22 апреля, чт
чт2200:00+7ююз338764 0.0 101744
03:00+6ююз34871 0.0 101856
06:00+6ююз35905 0.0 101988
09:00+12юз466724 0.0 1020486
12:00+15юз55495 0.2 10201725
15:00+15юз3554100 0.3 1020518
18:00+14ююз236099 0.0 102076
21:00+11ю346718 0.0 102152
23 апреля, пт
пт2300:00+10ю347278 0.4 102152
03:00+9ююз347726 0.4 102145
06:00+10ююз3579100 0.0 102199
09:00+13ююз47655 0.0 1022471
12:00+17ююз67455 0.0 10211937
15:00+17ююз6641100 0.0 10192460
18:00+15ююз3657100 0.0 1019143
21:00+11ю4106724 0.0 1019186